Temp
23 24 25 24 24 24 23 23 23 23 23 23 23 23 23 22 22 21 20 20 20 20 20 20 19 20 20 20 20 20 20 20 20 19 19 18 17 17 18 17 17 17 17
25 24 25 25 24 24 23 23 23 23 23 22 22 22 22 22 22 21 20 20 19 19 19 19 19 20 20 20 20 20 20 20 19 19 19 19 18 17 17 18 17 16 16
25 24 25 25 24 24 23 23 22 22 22 22 22 22 22 22 22 21 20 20 19 18 18 19 19 19 19 19 20 20 20 20 19 18 18 18 18 18 18 17 17 17 16
26 25 25 24 24 23 23 22 22 22 22 22 21 21 21 22 21 21 20 19 19 19 18 18 18 19 19 19 19 20 20 19 19 19 19 17 18 18 18 18 18 18 17
24 24 24 24 24 23 22 22 22 22 22 22 21 21 21 21 21 21 20 20 19 19 19 18 18 18 19 19 19 20 20 19 20 19 19 17 18 18 17 18 18 18 18
24 24 23 23 23 23 23 22 22 22 21 21 21 21 21 21 21 21 20 20 19 19 18 18 18 18 19 19 19 20 20 20 20 18 18 18 18 17 17 16 17 17 17
23 23 23 23 23 23 23 22 22 22 22 21 21 21 20 21 20 20 20 19 19 18 18 18 17 17 18 19 19 19 20 20 20 19 18 20 19 17 16 15 16 17 17
24 23 23 22 23 22 22 22 22 22 21 21 20 20 20 20 20 20 19 19 18 18 18 17 17 18 18 19 19 19 19 20 19 18 18 19 19 18 16 15 15 16 16
24 23 22 22 22 22 22 22 22 21 21 21 20 20 20 20 20 20 19 19 18 17 17 17 17 18 18 18 18 19 19 20 19 18 18 18 19 19 16 15 14 14 15
23 22 21 21 21 21 21 20 21 21 20 20 20 20 20 20 20 19 19 18 18 17 17 17 17 17 17 19 19 18 19 20 19 18 18 19 19 19 18 15 14 14 14
22 22 22 21 20 20 19 19 19 19 20 20 20 20 19 19 19 19 19 18 18 17 17 17 17 17 16 15 19 18 19 20 19 18 18 18 19 18 18 16 14 13 13
22 21 21 20 20 19 19 19 19 19 19 19 19 19 19 19 19 19 19 18 18 18 17 17 17 18 17 17 18 18 18 20 18 17 17 19 18 17 18 16 12 12 12
23 21 21 20 20 19 19 20 20 20 20 20 19 19 19 19 18 18 18 18 18 18 18 17 16 16 15 17 17 17 18 19 18 17 17 18 17 18 17 16 12 12 11
23 22 21 21 21 21 20 20 21 20 20 20 20 19 19 19 19 18 18 18 18 19 18 18 17 17 17 17 17 17 18 19 18 17 18 17 17 17 16 14 12 12 11
25 23 22 21 21 21 21 20 20 21 20 21 20 20 19 19 19 19 19 19 18 19 18 18 17 17 17 17 16 16 17 18 18 17 18 17 17 17 15 13 12 12 11
24 24 23 22 22 21 22 21 21 20 20 20 20 20 21 20 20 20 19 19 19 18 18 18 18 17 17 17 18 17 17 18 18 17 17 16 15 16 16 13 13 12 12
21 22 23 23 22 22 22 22 22 21 21 20 20 19 20 20 20 20 19 19 18 18 18 18 17 17 17 17 18 18 18 18 18 18 17 17 15 15 16 13 12 12 12
21 21 21 21 21 21 21 21 21 21 21 20 19 20 20 20 20 20 20 20 19 19 19 18 18 18 18 18 18 18 18 18 18 18 18 16 16 15 14 14 13 12 12
21 20 20 20 21 20 20 19 20 19 19 20 19 19 19 20 20 20 20 20 19 18 18 19 19 18 18 18 18 18 19 19 18 18 18 16 16 16 14 13 13 12 12
21 20 20 20 20 20 20 19 19 19 19 19 19 19 19 19 18 19 19 18 19 18 18 18 18 19 19 19 19 19 19 18 18 18 17 17 16 15 14 14 12 12 12
20 20 20 20 20 20 20 20 19 19 19 19 19 19 19 18 18 18 18 18 18 18 18 18 18 17 18 18 19 18 18 18 18 17 17 17 15 15 14 14 13 12 11
19 19 19 19 19 19 19 19 19 19 19 19 19 19 18 18 17 17 17 17 17 17 17 17 17 16 16 16 16 16 15 16 16 17 17 17 15 14 13 14 13 12 11
18 18 19 19 18 19 19 19 19 19 19 19 18 18 18 18 18 17 17 17 17 16 15 16 16 15 15 15 15 15 12 13 14 16 15 16 15 14 12 12 13 12 12
18 18 18 18 18 18 18 18 18 17 17 17 17 18 18 18 17 17 17 16 16 16 15 15 15 15 15 14 13 13 15 13 12 11 15 15 15 13 13 11 11 12 11
18 18 18 18 18 18 18 18 18 18 18 17 17 17 17 17 17 17 16 16 15 14 14 13 13 14 14 14 14 14 13 13 12 10 10 12 13 13 13 12 11 11 11
19 19 18 18 18 17 17 17 17 17 16 16 17 16 16 16 16 16 16 15 15 14 13 13 12 12 12 12 12 13 13 12 13 12 11 10 12 13 13 12 10 10 10
Height
787 786 789 794 795 798 800 803 806 809 810 813 815 817 819 821 822 824 826 828 829 830 832 833 834 835 836 836 836 837 837 837 837 837 836 837 838 838 838 838 837 837 836
780 786 788 792 795 797 800 802 806 809 812 814 815 817 819 821 823 825 827 829 830 831 832 834 835 835 837 838 838 838 838 839 839 840 839 839 839 839 840 840 839 839 838
779 785 788 791 795 797 798 801 805 808 811 814 816 818 820 821 823 826 828 829 830 832 833 834 835 836 837 839 839 839 839 839 841 842 842 842 841 842 842 842 841 841 841
779 783 785 790 794 797 799 801 802 805 808 812 815 818 819 821 823 825 826 828 830 831 834 835 836 836 837 838 840 841 841 841 841 843 843 844 842 843 844 844 843 843 843
781 784 787 790 794 797 800 802 804 805 807 810 814 818 820 821 822 824 826 827 830 831 832 834 836 837 837 839 840 841 841 842 842 842 839 843 842 844 845 845 845 844 845
781 782 785 790 794 796 799 802 805 808 810 812 814 818 820 821 822 824 825 827 829 830 832 833 835 836 837 839 840 840 841 842 843 844 842 842 842 844 846 846 846 846 846
781 783 788 791 795 796 799 802 804 807 808 811 815 817 820 822 824 826 827 827 828 830 831 832 833 835 837 837 839 840 841 841 842 842 842 840 841 843 845 847 848 847 847
781 785 788 792 794 796 798 801 803 807 810 813 816 818 820 822 824 826 828 829 831 831 831 832 832 833 835 837 837 838 840 840 842 841 842 840 840 842 844 846 848 849 849
781 784 788 791 794 797 799 802 804 806 810 812 814 817 819 821 823 825 827 829 830 832 834 833 833 832 833 834 836 837 838 839 840 842 841 840 839 840 842 844 846 848 848
781 784 787 791 794 798 801 803 805 807 809 811 813 815 817 820 822 824 826 829 830 830 832 833 833 833 832 831 833 835 836 837 837 838 839 838 838 839 840 842 843 846 847
781 783 785 789 794 798 802 805 807 809 811 812 814 815 817 818 820 822 825 826 828 829 830 830 831 833 833 831 831 832 834 835 836 836 836 836 836 837 838 839 841 842 844
779 783 785 787 791 797 802 805 807 809 811 813 815 816 817 819 820 822 823 825 826 828 829 830 829 829 830 830 831 831 831 833 834 836 834 833 834 834 835 836 839 840 842
781 784 786 789 791 795 800 804 806 808 810 812 813 814 816 818 819 820 822 823 826 828 828 828 828 829 829 828 828 829 830 830 831 833 835 833 832 832 833 834 836 838 839
781 783 785 788 791 794 798 801 803 805 806 807 809 810 813 815 817 818 819 820 822 824 826 827 827 826 826 828 828 828 829 828 828 828 830 832 832 832 832 833 835 837 837
783 784 785 787 790 794 797 801 803 804 805 805 806 808 809 811 813 815 817 818 819 820 822 823 822 823 823 823 826 827 827 827 826 826 825 826 829 830 831 832 833 834 836
782 782 783 785 787 791 795 798 801 803 805 805 806 806 806 808 811 813 813 814 815 816 817 818 819 819 819 820 820 822 824 825 824 824 824 824 825 826 828 831 834 835 834
783 782 780 783 787 788 792 796 799 801 802 804 805 804 805 807 808 809 811 810 810 813 813 815 816 816 817 817 816 817 818 820 820 818 819 820 820 822 823 827 831 833 834
785 785 783 784 790 792 795 796 798 800 802 802 803 803 803 803 803 806 807 808 808 810 811 812 811 811 810 812 812 812 812 815 816 814 814 814 815 816 819 820 824 828 831
789 788 788 791 793 794 796 797 798 799 800 800 800 802 803 804 804 804 802 802 805 805 805 805 805 805 804 806 806 807 808 808 809 810 810 810 809 809 812 814 817 821 824
793 791 790 791 792 796 798 798 800 801 801 801 800 799 800 799 800 801 800 800 800 801 801 801 801 799 798 798 800 800 801 800 802 804 803 804 804 806 809 811 814 817 820
796 795 794 794 796 796 797 799 800 800 800 800 799 799 797 796 796 796 796 796 795 795 794 794 795 795 794 794 794 793 793 794 793 796 797 796 798 799 801 803 807 811 816
798 798 798 798 798 799 799 801 801 801 800 800 799 798 798 797 796 794 793 792 791 790 789 789 789 788 787 787 787 788 787 787 786 787 787 788 787 790 793 796 800 803 808
798 799 799 800 800 800 801 802 801 801 800 799 798 798 797 795 795 794 793 791 789 789 786 785 785 784 783 781 782 782 787 782 778 777 777 779 781 782 785 788 793 796 799
798 799 800 800 801 801 802 801 801 801 800 799 798 796 795 794 792 790 788 787 786 785 782 782 781 779 779 776 777 776 775 774 779 777 773 769 774 776 780 781 784 790 793
796 798 799 800 801 801 801 801 801 800 799 797 796 795 794 793 791 789 787 784 784 784 781 778 777 777 774 773 766 766 767 767 768 770 771 770 770 770 767 771 774 776 781
794 795 797 798 799 800 801 801 800 798 797 795 794 792 790 789 789 788 786 784 782 781 779 777 775 773 772 770 766 764 762 761 757 761 760 761 757 756 760 761 767 766 770
Wind_Speed
23 26 23 19 17 17 18 19 18 17 16 15 15 14 14 14 14 14 15 15 15 13 13 12 9 9 10 11 13 12 12 11 11 12 12 13 12 13 11 8 12 14 15
28 26 25 21 18 19 19 20 19 17 15 15 15 14 13 13 13 12 13 13 12 11 11 10 8 9 10 10 11 12 13 12 14 16 13 9 11 12 11 9 11 13 13
28 28 25 22 20 20 21 21 20 18 16 15 14 14 13 12 11 11 11 11 10 11 10 9 7 7 9 9 8 10 11 11 11 13 14 11 11 10 8 10 14 13 12
25 28 27 24 22 20 21 22 22 20 18 16 15 14 13 12 11 11 11 10 9 10 9 9 7 6 7 7 7 7 7 6 6 3 1 6 11 11 9 8 9 8 9
25 27 27 25 23 21 21 21 20 20 19 17 16 14 13 12 11 10 10 10 9 9 10 9 7 4 6 6 6 5 4 3 6 10 9 12 10 11 9 8 8 6 6
22 22 28 26 24 22 22 21 20 18 16 15 15 14 12 11 10 11 11 11 10 9 9 9 8 7 5 5 5 4 3 2 5 10 14 8 8 10 9 9 7 5 6
22 16 27 26 23 21 22 22 20 19 18 16 16 14 12 10 9 9 10 11 11 10 10 9 9 8 7 7 6 4 3 2 3 8 8 3 1 6 9 8 6 5 5
22 20 22 24 23 21 20 20 20 17 16 15 14 13 12 10 9 9 10 9 9 9 10 9 10 9 8 8 8 6 5 3 4 7 11 7 2 3 10 9 6 3 3
18 21 22 24 22 21 19 18 18 17 17 16 14 13 12 11 11 11 11 11 10 9 9 10 9 10 11 11 10 9 8 6 4 2 8 6 1 1 10 10 9 5 4
16 14 19 21 22 20 19 18 17 17 17 16 16 15 13 12 11 12 12 12 10 11 11 10 10 11 12 11 12 11 10 10 6 2 13 9 5 5 2 11 11 9 6
19 17 14 21 22 20 18 16 15 14 14 14 14 14 14 14 14 14 15 14 13 13 12 10 12 13 13 13 12 13 13 12 8 3 15 11 8 6 6 10 12 12 9
23 21 15 19 21 19 17 17 16 15 14 14 14 14 14 14 14 15 15 16 15 15 14 13 14 14 14 15 14 14 16 15 10 9 17 12 10 7 7 6 10 11 9
23 21 19 17 17 21 16 14 14 17 16 16 16 15 15 15 14 15 15 16 17 16 17 16 15 14 17 16 15 17 17 17 12 13 16 13 12 10 9 7 12 11 11
25 21 20 18 16 16 20 14 17 15 17 20 19 18 17 17 17 20 23 20 21 19 19 19 18 20 21 18 18 15 18 19 16 16 17 15 14 12 10 11 14 13 13
10 20 22 20 16 15 15 14 17 19 18 17 17 18 19 19 20 20 22 23 23 21 22 22 25 24 22 20 23 22 20 18 20 20 20 20 18 15 12 15 16 16 15
11 9 25 24 19 17 12 13 13 4 14 21 23 22 21 20 18 22 24 25 24 23 24 26 27 26 24 21 23 27 26 22 23 20 19 22 21 17 15 17 17 17 16
20 18 15 26 23 19 14 7 14 7 4 2 1 27 27 26 24 25 24 24 25 23 20 24 27 30 28 28 25 27 25 28 26 26 22 25 24 21 18 21 19 19 17
19 21 21 21 19 14 9 7 8 6 11 13 8 4 17 27 27 24 24 26 25 25 25 27 27 33 35 33 31 29 29 29 27 27 27 29 29 26 25 26 26 23 21
22 24 25 18 12 10 5 3 2 2 6 10 13 12 9 14 23 27 27 26 27 27 30 30 34 31 33 34 33 33 32 33 34 30 29 32 33 32 31 30 30 29 27
19 18 22 24 18 12 10 8 5 4 5 5 7 8 13 17 19 22 25 27 27 27 28 29 34 31 30 35 32 30 33 34 35 36 35 34 35 35 33 32 34 32 31
19 20 17 18 17 18 17 12 7 9 5 5 5 7 9 11 15 18 22 28 29 31 32 32 32 30 32 32 28 25 28 33 36 38 40 39 38 38 38 37 38 37 35
17 18 18 17 16 15 14 13 8 8 6 8 8 10 11 14 15 16 20 24 27 29 32 33 31 28 28 30 23 12 6 19 30 39 44 41 41 41 42 41 41 42 40
15 16 14 13 10 11 10 7 8 7 8 9 8 12 15 16 15 16 19 24 26 28 30 29 30 27 25 23 34 16 2 6 7 26 37 42 34 41 37 42 44 44 44
12 10 9 8 9 8 9 9 8 8 11 11 14 15 14 13 14 19 19 18 19 22 27 30 34 31 27 23 22 33 32 5 3 3 16 31 35 35 39 36 43 45 46
14 10 7 7 8 9 11 13 12 14 17 21 23 22 22 21 22 19 15 16 17 16 18 19 20 22 26 25 29 23 34 31 18 4 4 8 25 28 38 39 44 47 46
13 8 7 7 10 12 14 17 19 18 21 23 24 25 25 24 27 20 20 18 19 21 19 17 17 17 19 21 22 24 21 13 19 13 9 6 14 31 35 37 41 45 43
Wind_Direction
150 150 153 155 149 151 148 147 147 145 141 137 133 126 118 110 107 108 111 114 112 110 111 114 112 100 97 100 94 84 79 75 75 80 90 90 79 76 96 72 73 85 81
159 157 158 158 158 157 154 153 155 153 149 145 141 137 130 124 119 119 121 121 118 116 114 117 113 106 107 104 94 86 82 82 89 85 75 89 92 85 78 64 71 76 83
154 160 161 162 163 162 158 159 160 159 158 156 151 149 142 136 130 134 133 131 128 120 122 119 122 112 114 112 100 92 94 96 100 112 63 81 87 66 62 68 74 60 64
160 166 166 168 166 166 163 165 165 165 165 164 163 161 155 149 147 148 147 144 141 137 139 137 140 135 129 122 112 90 101 90 84 48 18 100 98 82 62 59 77 80 75
162 169 169 169 171 170 168 169 171 169 170 170 171 170 166 162 159 159 161 159 157 151 149 146 152 157 151 143 133 100 88 67 61 43 114 142 96 99 90 67 62 71 78
161 171 173 173 175 172 170 172 174 174 175 176 175 178 177 176 175 174 174 171 166 160 155 157 163 176 164 168 160 127 120 84 45 50 137 133 98 117 96 86 76 88 88
160 157 176 176 178 175 175 177 179 182 179 181 183 185 187 188 191 187 185 178 174 167 167 173 173 177 188 180 185 175 172 149 11 14 166 188 141 144 124 94 89 102 100
161 165 172 183 181 181 180 181 183 182 184 185 189 192 194 196 199 197 194 190 186 184 178 190 187 193 193 196 196 195 199 203 335 46 167 169 149 140 156 121 110 123 149
162 169 175 184 186 186 186 187 185 185 188 189 194 200 202 205 204 200 199 196 194 195 209 205 209 212 205 204 207 204 200 211 255 24 195 177 255 60 166 165 134 132 168
164 161 180 186 188 190 190 192 192 191 193 194 198 202 209 211 207 204 201 202 208 214 225 219 225 224 221 207 205 208 203 202 243 351 192 192 222 281 241 181 180 160 160
169 174 171 187 192 193 194 193 196 198 199 203 205 207 211 211 208 204 207 207 212 232 230 234 225 224 229 219 208 206 203 202 239 233 193 206 231 259 282 192 188 189 181
173 175 175 176 184 194 201 206 208 207 209 212 216 217 218 218 216 218 217 217 221 234 243 252 237 226 223 228 228 215 207 204 237 235 198 213 224 241 269 199 163 170 173
173 173 174 173 182 186 183 210 211 220 224 227 225 226 225 221 219 226 224 218 217 234 245 248 243 230 235 230 229 225 215 209 231 214 208 217 223 237 255 215 163 165 167
175 180 181 175 168 177 183 211 217 213 224 227 226 227 225 224 218 229 222 223 218 241 243 252 251 248 248 237 230 229 227 215 229 224 212 226 231 239 241 195 173 175 171
128 189 187 183 175 167 184 200 219 219 225 227 222 222 227 225 220 230 228 226 228 238 245 250 251 249 248 239 228 232 235 228 227 223 219 223 230 243 224 184 183 182 180
90 103 191 188 182 174 161 205 209 235 235 236 229 225 220 224 227 223 231 232 237 237 243 244 248 243 243 242 232 232 238 232 227 231 220 213 217 231 239 192 193 194 188
61 72 148 191 186 180 165 179 217 252 256 86 358 237 230 223 226 227 231 235 239 241 241 244 244 242 243 238 236 230 234 225 220 230 230 219 214 221 231 199 199 201 198
63 65 78 160 175 173 161 171 204 232 251 277 321 326 236 230 221 229 235 247 240 241 247 247 244 237 233 236 234 231 230 228 222 226 236 221 214 213 210 202 200 201 203
68 73 73 85 112 127 119 144 166 231 285 276 288 286 259 240 241 245 247 254 248 248 249 251 250 250 226 230 234 233 230 230 234 231 233 225 217 217 214 207 204 205 205
69 69 70 70 87 87 89 84 75 49 17 335 326 301 281 271 262 258 257 254 253 255 255 257 256 247 231 233 238 236 234 235 235 233 232 231 226 220 219 215 208 206 208
74 73 65 66 62 77 68 65 74 42 9 345 325 316 307 289 284 278 264 259 264 262 260 262 263 260 253 242 235 233 240 240 234 231 230 231 227 222 221 218 215 209 210
69 72 71 63 54 62 61 49 36 8 346 340 312 300 294 288 290 284 278 275 275 280 276 268 263 258 258 242 232 250 244 247 238 232 230 227 223 220 216 218 217 212 210
72 66 68 68 68 48 44 30 15 8 358 336 332 309 311 302 298 286 281 281 282 284 278 278 276 263 256 249 233 213 207 229 207 231 225 227 219 212 207 209 216 215 214
106 91 73 55 48 52 19 2 346 334 320 309 316 317 313 294 296 296 288 285 284 277 276 279 276 270 266 261 245 234 234 190 246 315 237 222 222 213 210 205 208 212 215
125 107 77 69 45 18 360 352 330 311 309 309 307 306 303 305 305 291 290 291 284 288 293 294 293 288 283 290 239 242 235 234 225 185 218 225 230 224 211 210 207 208 209
137 115 73 50 23 10 354 340 329 331 327 311 305 303 304 305 306 286 294 290 292 296 301 304 303 301 302 300 302 260 260 255 228 224 225 212 224 217 215 211 207 204 204